******************************************************************************* JPL/HORIZONS Great comet (C/1811 F1) 2025-Dec-12 17:55:32 Rec #:90001649 Soln.date: - # obs: 1000 (1811-1812) IAU76/J2000 helio. ecliptic osc. elements (au, days, deg., period=Julian yrs): EPOCH= 2382760.5 ! 1811-Sep-05.0000000 (TDB) RMSW= n.a. EC= .995125 QR= 1.035412 TP= 2382768.2562000002 OM= 143.0497 W= 65.4097 IN= 106.9342 A= 212.3922051282067 MA= 359.9975302942538 ADIST= 423.7489982564135 PER= 3095.3949032596 N= .000318417 ANGMOM= .024724248 DAN= 1.46084 DDN= 3.52581 L= 110.5737357 B= 60.4445747 TP= 1811-Sep-12.7562000002 Comet physical (GM= km^3/s^2; RAD= km): GM= n.a. RAD= n.a. M1= n.a. M2= n.a. k1= n.a. k2= n.a. PHCOF= n.a. COMET comments 1: soln ref.= SAO_2008, data arc: 1811-03-31 to 1812-08-17 2: epoch may be 2382761.0 (hour ambiguous: 12h/0h); time units are UT, but set to E ******************************************************************************* ******************************************************************************* Ephemeris / WWW_USER Fri Dec 12 17:55:32 2025 Pasadena, USA / Horizons ******************************************************************************* Target body name: Great comet (C/1811 F1) {source: DASTCOM} Center body name: Solar System Barycenter (0) {source: DE441} Center-site name: BODY CENTER ******************************************************************************* Start time : A.D. 1600-Jan-01 00:00:00.0000 TDB Stop time : A.D. 2200-Jan-01 00:00:00.0000 TDB Step-size : 600 calendar years ******************************************************************************* Center geodetic : 0.0, 0.0, 0.0 {E-lon(deg),Lat(deg),Alt(km)} Center cylindric: 0.0, 0.0, 0.0 {E-lon(deg),Dxy(km),Dz(km)} Center radii : (undefined) Keplerian GM : 2.9630927493968080E-04 au^3/d^2 Small perturbers: Yes {source: SB441-N16} Output units : AU-D, deg, Julian Day Number (Tp) Calendar mode : Mixed Julian/Gregorian Output type : GEOMETRIC osculating elements Output format : 10 Reference frame : Ecliptic of J2000.0 ******************************************************************************* Initial IAU76/J2000 heliocentric ecliptic osculating elements (au, days, deg.): EPOCH= 2382760.5 ! 1811-Sep-05.0000000 (TDB) RMSW= n.a. EC= .995125 QR= 1.035412 TP= 2382768.2562000002 OM= 143.0497 W= 65.4097 IN= 106.9342 Equivalent ICRF heliocentric cartesian coordinates (au, au/d): X=-3.257343995905821E-01 Y= 1.852583161842041E-01 Z= 9.740332389015373E-01 VX= 1.857363967460560E-02 VY=-1.336173973816352E-02 VZ= 6.494074356251127E-03 Comet physical (GM= km^3/s^2; RAD= km): GM= n.a. RAD= n.a. M1= n.a. M2= n.a. k1= n.a. k2= n.a. PHCOF= n.a. ******************************************************************************* JDTDB EC QR IN OM W Tp N MA TA A AD PR ******************************************************************************* $$SOE 2305447.500000000 = A.D. 1600-Jan-01 00:00:00.0000 TDB EC= 9.947287380243885E-01 QR= 1.033130841872011E+00 IN= 1.069287709616647E+02 OM= 1.430696940369248E+02 W = 6.551546876738610E+01 Tp= 2382767.476433748845 N = 3.594464231815076E-04 MA= 3.322076110304105E+02 TA= 1.864752855388254E+02 A = 1.959930746474042E+02 AD= 3.909530184529365E+02 PR= 1.001540081588774E+06 2524593.500000000 = A.D. 2200-Jan-01 00:00:00.0000 TDB EC= 9.950113388344677E-01 QR= 1.032128357150289E+00 IN= 1.069343282062192E+02 OM= 1.430771933815715E+02 W = 6.533582620978432E+01 Tp= 2382769.148699865211 N = 3.314138858344388E-04 MA= 4.700255937032617E+01 TA= 1.754143357651810E+02 A = 2.068948607456985E+02 AD= 4.127575931342466E+02 PR= 1.086255028492806E+06 $$EOE ******************************************************************************* TIME Barycentric Dynamical Time ("TDB" or T_eph) output was requested. This continuous coordinate time is equivalent to the relativistic proper time of a clock at rest in a reference frame co-moving with the solar system barycenter but outside the system's gravity well. It is the independent variable in the solar system relativistic equations of motion. TDB runs at a uniform rate of one SI second per second and is independent of irregularities in Earth's rotation. CALENDAR SYSTEM Mixed calendar mode was active such that calendar dates after AD 1582-Oct-15 (if any) are in the modern Gregorian system. Dates prior to 1582-Oct-5 (if any) are in the Julian calendar system, which is automatically extended for dates prior to its adoption on 45-Jan-1 BC. The Julian calendar is useful for matching historical dates. The Gregorian calendar more accurately corresponds to the Earth's orbital motion and seasons. A "Gregorian-only" calendar mode is available if such physical events are the primary interest. REFERENCE FRAME AND COORDINATES Ecliptic at the standard reference epoch Reference epoch: J2000.0 X-Y plane: adopted Earth orbital plane at the reference epoch Note: IAU76 obliquity of 84381.448 arcseconds wrt ICRF X-Y plane X-axis : ICRF Z-axis : perpendicular to the X-Y plane in the directional (+ or -) sense of Earth's north pole at the reference epoch. Symbol meaning [1 au= 149597870.700 km, 1 day= 86400.0 s]: JDTDB Julian Day Number, Barycentric Dynamical Time EC Eccentricity, e QR Periapsis distance, q (au) IN Inclination w.r.t X-Y plane, i (degrees) OM Longitude of Ascending Node, OMEGA, (degrees) W Argument of Perifocus, w (degrees) Tp Time of periapsis (Julian Day Number) N Mean motion, n (degrees/day) MA Mean anomaly, M (degrees) TA True anomaly, nu (degrees) A Semi-major axis, a (au) AD Apoapsis distance (au) PR Sidereal orbit period (day) ABERRATIONS AND CORRECTIONS Geometric osculating elements have NO corrections or aberrations applied. Computations by ... Solar System Dynamics Group, Horizons On-Line Ephemeris System 4800 Oak Grove Drive, Jet Propulsion Laboratory Pasadena, CA 91109 USA General site: https://ssd.jpl.nasa.gov/ Mailing list: https://ssd.jpl.nasa.gov/email_list.html System news : https://ssd.jpl.nasa.gov/horizons/news.html User Guide : https://ssd.jpl.nasa.gov/horizons/manual.html Connect : browser https://ssd.jpl.nasa.gov/horizons/app.html#/x API https://ssd-api.jpl.nasa.gov/doc/horizons.html command-line telnet ssd.jpl.nasa.gov 6775 e-mail/batch https://ssd.jpl.nasa.gov/ftp/ssd/horizons_batch.txt scripts https://ssd.jpl.nasa.gov/ftp/ssd/SCRIPTS Author : Jon.D.Giorgini@jpl.nasa.gov ******************************************************************************* !$$SOF CENTER = '@0' COMMAND = '1811 F1' OUT_UNITS = 'AU-D' START_TIME = '1600-01-01' STEP_SIZE = '600 years' STOP_TIME = '2200-01-01' TABLE_TYPE = 'ELEMENTS'